Location: Stara Lesna
(49.1528°N, 20.2911°E)
Time: 03:17:50
(UTC+02:00)

IRS-1C - Pass Details

Date: 13 July 2020
Orbit: 815 x 817 km, 98.8° (Epoch: 11 August)

Event Time Altitude Azimuth Distance (km) Brightness Sun altitude
Rises 03:31:39 0° 14° (NNE) 3,356 8.6 -9.9°
Reaches altitude 10° 03:34:00 10° 14° (NNE) 2,420 7.7 -9.7°
Maximum altitude 03:39:22 84° 286° (WNW) 827 4.2 -9.1°
Drops below altitude 10° 03:44:42 10° 200° (SSW) 2,402 6.0 -8.6°
Enters shadow 03:45:04 - 200° (SSW) 2,550 6.1 -8.5°
